Regional Weather Roundup
Issued by NWS Sterling, VA

Home | Current Version | Previous Version | Text Only | Print | Product List | Glossary On
Versions: 1 2 3 4 5 6 7 8 9 10 11 12 13 14 15 16 17 18 19 20 21 22 23 24 25 26 27
000
ASUS41 KLWX 172310
RWRLWX

REGIONAL WEATHER ROUNDUP
NATIONAL WEATHER SERVICE BALTIMORE MD/WASHINGTON DC
600 PM EST SAT FEB 17 2018

Note: "FAIR" indicates few or no clouds below 12,000 feet
with no significant weather and/or obstructions to visibility.
 TC=TEMPERATURE CELSIUS

 * =Non NWS site. Station does not report precipitation (e.g. rain,
    snow, etc.), thunder, or fog.

DCZ001-MDZ009-015-VAZ040>042-051-053>054-180000-
WASHINGTON METRO

CITY           SKY/WX    TMP DP  RH WIND       PRES   REMARKS
WASHINGTON NAT RAIN      34  34 100 SE5       30.18S FOG     WCI  30
DULLES         LGT SNOW  33  33 100 S6        30.15F FOG     WCI  28
FT BELVOIR     LGT RAIN  34  32  93 S3        30.19R FOG
MANASSAS*      LGT RAIN  34  32  93 S3        30.17F FOG

$$

MDZ006>007-011-014-180000-
BALTIMORE METRO

CITY           SKY/WX    TMP DP  RH WIND       PRES   REMARKS
BWI AIRPORT    LGT SNOW  32  32 100 E8        30.14F FOG     WCI  25

$$

MDZ012-015-019>023-180000-
MARYLAND EASTERN SHORE

CITY           SKY/WX    TMP DP  RH WIND       PRES   REMARKS
OCEAN CITY     HVY RAIN  38  37  97 NE12      30.15F FOG     WCI  30
SALISBURY      RAIN      36  36 100 NE8       30.14F FOG     WCI  30

$$

MDZ017>025-180000-
SOUTHERN MARYLAND

CITY           SKY/WX    TMP DP  RH WIND       PRES   REMARKS
PATUXENT RIVER RAIN      36  35  96 N10       30.18S FOG     WCI  28
ST INIGOES     RAIN      36  32  85 N6        30.17R FOG     WCI  31
LEONARDTOWN*   NOT AVBL

$$

MDZ003>005-180000-
NORTH CENTRAL MARYLAND

CITY           SKY/WX    TMP DP  RH WIND       PRES   REMARKS
FREDERICK*     NOT AVBL
HAGERSTOWN APT NOT AVBL
WESTMINSTER*   NOT AVBL

$$

MDZ501>502-180000-
WESTERN MARYLAND

CITY           SKY/WX    TMP DP  RH WIND       PRES   REMARKS
OAKLAND*       NOT AVBL
CUMBERLAND*    NOT AVBL

$$

VAZ025>031-180000-
SHENANDOAH VALLEY

CITY           SKY/WX    TMP DP  RH WIND       PRES   REMARKS
WINCHESTER*    NOT AVBL
FRONT ROYAL*   NOT AVBL
LURAY*         NOT AVBL
NEW MARKET*    NOT AVBL
STAUNTON*      NOT AVBL
WAYNESBORO*    NOT AVBL

$$

WVZ021-048>050-054>055-180000-
EASTERN WEST VIRGINIA PANHANDLE

CITY           SKY/WX    TMP DP  RH WIND       PRES   REMARKS
MARTINSBURG    LGT SNOW  32  31  96 S3        30.10F VSB 1
PETERSBURG*    NOT AVBL

$$

VAZ036>039-050-180000-
CENTRAL FOOTHILLS

CITY           SKY/WX    TMP DP  RH WIND       PRES   REMARKS
CHARLOTTESVILL NOT AVBL
CULPEPER*      NOT AVBL
ORANGE*        NOT AVBL
GORDONSVILLE*  NOT AVBL
WARRENTON*     NOT AVBL

$$

VAZ055>057-180000-
NORTH AND CENTRAL PIEDMONT

CITY           SKY/WX    TMP DP  RH WIND       PRES   REMARKS
FREDERICKSBRG* NOT AVBL
STAFFORD*      NOT AVBL

$$

NCZ024-NYZ072-PAZ021-071-VAZ022-071-180000-
OTHER REGIONAL OBSERVATIONS

CITY           SKY/WX    TMP DP  RH WIND       PRES   REMARKS
NEW YORK CITY  LGT SNOW  33  31  92 E5        30.25F FOG     WCI  29

$$

ANZ530>537-180000-
MARINE OBSERVATIONS

STATION/POSITION TIME  TEMP    WIND        PRES
                       AIR SEA DIR/SP/G
                 (UTC) (F)     (DEG/KT/KT) (MB)
THOMAS PT LIGHT  2200   32 38   50/ 10/ 11   N/A
BALT KEY BRIDGE  2248   32     110/ 10/ 11 1021.3F
COVE POINT       2248   35      20/  9/ 11 1022.8F
LEWISETTA        2248   37 45  340/  7/  9 1022.9R
SOLOMONS ISLAND  2248   35 40  360/  7/  8 1022.0F

$$





USA.gov is the U.S. government's official web portal to all federal, state and local government web resources and services.